Regional Weather Roundup
Issued by NWS Cleveland, OH

Home | Current Version | Previous Version | Graphics & Text | Print | Product List | Glossary On
Versions: 1 2 3 4 5 6 7 8 9 10 11 12 13 14 15 16 17 18 19 20 21 22 23 24 25 26 27 28 29 30 31 32 33 34 35 36 37 38 39 40 41 42 43 44 45 46 47 48 49 50
000
ASUS41 KCLE 242102
RWRCLE
OHIO REGIONAL WEATHER ROUNDUP
NATIONAL WEATHER SERVICE CLEVELAND, OH
500 PM EDT SUN JUL 24 2016

NOTE: "FAIR" INDICATES FEW OR NO CLOUDS BELOW 12,000 FEET WITH NO
SIGNIFICANT WEATHER AND/OR OBSTRUCTIONS TO VISIBILITY.

OHZ001>008-015>018-024>027-034-035-043-044-242200-
   NORTHWEST OHIO

CITY           SKY/WX    TMP DP  RH WIND       PRES   REMARKS
DEFIANCE       CLOUDY    89  71  55 S12       29.93F HX  95
FINDLAY        CLOUDY    86  69  56 S13       29.95F HX  90
TOLEDO EXPRESS CLOUDY    78  75  90 S5        29.94S
TOLEDO EXEC    MOSUNNY   79  73  82 S6        29.95R
LIMA           PTSUNNY   85  72  65 SE14      29.98F HX  91
$$

OHZ009>014-019>023-028>033-038-089-242200-
   NORTHEAST OHIO

CITY           SKY/WX    TMP DP  RH WIND       PRES   REMARKS
CLE-HOPKINS    CLOUDY    81  70  69 SW10      29.99F
CLE-LAKEFRONT  CLOUDY    80  73  79 W15       29.97S
CUY CO. ARPT   NOT AVBL
LORAIN-ELYRIA  PTSUNNY   76  69  79 SW8       29.98F
ASHTABULA      CLOUDY    80  74  81 NW5       30.00R
AKRON-CANTON   CLOUDY    79  73  82 CALM      30.01F
WOOSTER        LGT RAIN  78  72  81 CALM      30.00F
MANSFIELD      CLOUDY    77  71  82 S13       30.00F
YOUNGSTOWN     CLOUDY    78  72  81 SW9       30.00F
$$

OHZ042-051>053-060>062-070>072-077>081-242200-
  SOUTHWEST OHIO

CITY           SKY/WX    TMP DP  RH WIND       PRES   REMARKS
CINC-COVINGTON MOSUNNY   93  72  50 W6        29.99F HX 101
CINC-LUNKEN    MOSUNNY   93  75  55 S9        29.97F HX 104
HAMILTON       MOSUNNY   94  73  50 W9        29.98F HX 103
DAYTON         CLOUDY    91  73  55 W9        30.01S HX  99
WRIGHT-PAT AFB CLOUDY    92  74  54 W10       29.98S HX 102
DAYTON GENERAL MOSUNNY   92  71  50 W9        29.99S HX  98
WILMINGTON     PTSUNNY   91  74  57 S7        30.00S HX 100
$$

OHZ036-037-039>041-045>050-054>059-063>069-073>076-082>088-242200-
  CENTRAL AND SOUTHEAST OHIO

CITY           SKY/WX    TMP DP  RH WIND       PRES   REMARKS
COLUMBUS       CLOUDY    82  71  69 N15       30.00R
OSU AIRPORT    LGT RAIN  77  73  87 N7        30.01F
BOLTON FIELD   MOSUNNY   88  73  62 N16G22    30.01S HX  96
RICKENBACK AFB CLOUDY    91  72  54 W5        29.99S HX  98
NEWARK         MOSUNNY   86  75  69 N10       30.00S HX  95
MARION         CLOUDY    84  71  65 S12       30.00F
LANCASTER      MOSUNNY   91  75  59 VRB6      30.00S HX 101
ZANESVILLE     MOSUNNY   95  71  45 W10G18    30.00S HX 102
NEW PHILLY     CLOUDY    90  70  51 NW8       30.00S HX  95
$$



USA.gov is the U.S. government's official web portal to all federal, state and local government web resources and services.